Flag for Estonia Weather past 2 weeks in Tartu, Estonia

Now
66 °F

Scattered showers. Scattered clouds.


Feels Like: 66 °F
Forecast: 50 / 62 °F
Wind: 7 mph from Southeast

Location: Tartu/Ulenurme

Current Time: May 26, 2015 at 1:46:36 PM

Latest Report: May 26, 2015 at 12:50 PM


Visibility: N/A

Pressure: 29.86 "Hg

Humidity: 52%

Dew point: 48 °F

Location of TartuLocation

Historic Weather in Tartu — Graph

°F

Tartu temperature yesterday

Maximum temperature yesterday: 68 °F (at 3:50 PM)
Minimum temperature yesterday: 41 °F (at 4:50 AM)
Average temperature yesterday: 57 °F

Past Weeks' High & Low Weather Summary

 TemperatureHumidityPressure
High68 °F (May 25, 3:50 PM)94% (May 21, 6:50 AM)30.21 "Hg (May 21, 6:50 AM)
Low36 °F (May 15, 4:50 AM)24% (May 25, 3:50 PM)29.50 "Hg (May 13, 6:50 AM)
Average51 °F69%29.85 "Hg
* Reported May 11 11:50 AM — May 26 11:50 AM, Tartu, Weather by CustomWeather, © 2015

Note: Actual official high and low records may vary slightly from our data, if they occured in-between our weather recording intervals... More about our weather records

Advertising

Tartu weather history for previous 24 hours

 ConditionsComfort  
Time TempWeatherWind HumidityBarometerVisibility
11:50 AM
Tue, May 26
66 °FSunny.8 mph46%29.86 "Hg10 mi
10:50 AM66 °FPassing clouds.5 mph49%29.86 "HgN/A
9:50 AM59 °FSunny.5 mph72%29.86 "Hg10 mi
8:50 AM57 °FSunny.No wind67%29.89 "Hg10 mi
7:50 AM55 °FSunny.3 mph67%29.89 "Hg10 mi
6:50 AM54 °FPassing clouds.No wind67%29.89 "HgN/A
5:50 AM45 °FQuite cool.2 mph81%29.89 "HgN/A
4:50 AM43 °FQuite cool.2 mph87%29.89 "HgN/A
3:50 AM45 °FQuite cool.2 mph81%29.89 "HgN/A
2:50 AM45 °FQuite cool.No wind81%29.89 "HgN/A
1:50 AM46 °FCool.No wind76%29.92 "HgN/A
12:50 AM48 °FCool.No wind71%29.92 "HgN/A
11:50 PM
Mon, May 25
50 °FCool.2 mph71%29.92 "HgN/A
10:50 PM54 °FCool.No wind67%29.92 "HgN/A
9:50 PM57 °FRefreshingly cool.1 mph55%29.92 "HgN/A
8:50 PM64 °FMild.3 mph40%29.92 "HgN/A
7:50 PM66 °FMild.5 mph35%29.92 "HgN/A
6:50 PM66 °FPassing clouds.7 mph32%29.92 "HgN/A
5:50 PM68 °FPassing clouds.9 mph28%29.95 "HgN/A
4:50 PM68 °FSunny.12 mph24%29.95 "Hg10 mi
3:50 PM68 °FSunny.14 mph24%29.95 "Hg10 mi
2:50 PM66 °FPassing clouds.9 mph30%29.95 "HgN/A
1:50 PM64 °FPassing clouds.13 mph34%29.98 "HgN/A
Weather by CustomWeather, © 2015

See weather overviewHow to use our weather pages